| time (UTC) | temp C | wind direction | speed KPH | gust KPH | rain 1hr cm | rain 24hr cm | rain mn cm | humidity % | barometer mb |
| 20260506234642 | 11 | 0.0 | 0.0 | 0.00 | 1.45 | 0.03 | 90 | 1008.6 | |
| 20260506233522 | 11 | 0.0 | 0.0 | 0.00 | 1.47 | 0.03 | 90 | 1008.8 | |
| 20260506232542 | 12 | 249 | 1.6 | 3.2 | 0.03 | 1.47 | 0.03 | 90 | 1008.8 |
| 20260506231609 | 12 | 129 | 3.2 | 3.2 | 0.03 | 1.50 | 0.03 | 89 | 1008.9 |
| 20260506230529 | 12 | 160 | 1.6 | 1.6 | 0.03 | 1.50 | 0.03 | 89 | 1008.8 |
| 20260506225033 | 12 | 0.0 | 0.0 | 0.03 | 1.52 | 0.03 | 88 | 1008.6 | |
| 20260506224058 | 13 | 143 | 0.0 | 1.6 | 0.03 | 1.52 | 0.03 | 88 | 1008.8 |
| 20260506223018 | 13 | 105 | 3.2 | 4.8 | 0.00 | 1.50 | 0.00 | 88 | 1008.8 |
| 20260506222040 | 13 | 148 | 0.0 | 1.6 | 0.03 | 1.52 | 0.00 | 87 | 1008.7 |
| 20260506221017 | 13 | 0.0 | 0.0 | 0.03 | 1.52 | 0.00 | 86 | 1008.6 | |
| 20260506220038 | 13 | 151 | 0.0 | 1.6 | 0.03 | 1.52 | 0.00 | 85 | 1008.6 |
| 20260506215105 | 13 | 130 | 3.2 | 4.8 | 0.03 | 1.52 | 1.52 | 85 | 1008.5 |
| 20260506214024 | 14 | 146 | 1.6 | 3.2 | 0.03 | 1.52 | 1.52 | 85 | 1008.5 |
| 20260506213046 | 14 | 159 | 3.2 | 3.2 | 0.03 | 1.52 | 1.52 | 86 | 1008.6 |
| 20260506212023 | 14 | 168 | 1.6 | 4.8 | 0.03 | 1.52 | 1.50 | 85 | 1008.4 |
| 20260506211050 | 14 | 149 | 1.6 | 3.2 | 0.03 | 1.52 | 1.50 | 86 | 1008.3 |
| 20260506210022 | 15 | 125 | 3.2 | 4.8 | 0.03 | 1.52 | 1.50 | 86 | 1008.3 |
| 20260506205040 | 15 | 131 | 3.2 | 4.8 | 0.03 | 1.52 | 1.50 | 85 | 1008.3 |
| 20260506204113 | 15 | 127 | 4.8 | 6.4 | 0.03 | 1.55 | 1.50 | 88 | 1008.1 |
| 20260506203056 | 15 | 0.0 | 0.0 | 0.05 | 1.55 | 1.50 | 87 | 1008.1 | |
| 20260506202154 | 15 | 0.0 | 0.0 | 0.03 | 1.52 | 1.47 | 87 | 1008.1 | |
| 20260506201034 | 15 | 0.0 | 0.0 | 0.03 | 1.55 | 1.47 | 86 | 1008.0 | |
| 20260506200119 | 15 | 154 | 0.0 | 1.6 | 0.03 | 1.55 | 1.47 | 85 | 1007.9 |
| 20260506195033 | 15 | 167 | 0.0 | 3.2 | 0.05 | 1.55 | 1.47 | 84 | 1007.7 |
| 20260506194058 | 15 | 156 | 3.2 | 4.8 | 0.05 | 1.57 | 1.47 | 84 | 1007.5 |
| 20260506193059 | 15 | 163 | 1.6 | 1.6 | 0.03 | 1.55 | 1.45 | 83 | 1007.5 |
| 20260506192024 | 16 | 155 | 3.2 | 4.8 | 0.03 | 1.55 | 1.45 | 83 | 1007.3 |
| 20260506191041 | 16 | 169 | 3.2 | 6.4 | 0.05 | 1.57 | 1.45 | 82 | 1007.0 |
| 20260506190025 | 16 | 181 | 1.6 | 4.8 | 0.05 | 1.57 | 1.45 | 82 | 1006.8 |
| 20260506185108 | 16 | 169 | 3.2 | 6.4 | 0.03 | 1.57 | 1.42 | 81 | 1006.8 |
| 20260506184113 | 16 | 151 | 4.8 | 6.4 | 0.05 | 1.57 | 1.42 | 81 | 1006.7 |
| 20260506183037 | 16 | 141 | 6.4 | 9.7 | 0.05 | 1.57 | 1.42 | 81 | 1006.7 |
| 20260506182114 | 16 | 158 | 4.8 | 6.4 | 0.05 | 1.60 | 1.42 | 81 | 1006.7 |
| 20260506181033 | 16 | 136 | 6.4 | 9.7 | 0.03 | 1.57 | 1.40 | 80 | 1006.6 |
| 20260506180059 | 16 | 169 | 4.8 | 6.4 | 0.05 | 1.60 | 1.40 | 79 | 1006.5 |
| 20260506175018 | 17 | 194 | 3.2 | 6.4 | 0.05 | 1.60 | 1.40 | 77 | 1006.3 |
| 20260506174039 | 17 | 155 | 4.8 | 11.3 | 0.03 | 1.60 | 1.37 | 75 | 1006.4 |
| 20260506173017 | 17 | 150 | 6.4 | 9.7 | 0.05 | 1.60 | 1.37 | 74 | 1006.3 |
| 20260506172040 | 17 | 193 | 3.2 | 4.8 | 0.05 | 1.60 | 1.37 | 73 | 1006.2 |
| 20260506171018 | 17 | 187 | 3.2 | 9.7 | 0.05 | 1.60 | 1.37 | 73 | 1006.1 |
| 20260506170039 | 17 | 232 | 3.2 | 6.4 | 0.05 | 1.57 | 1.35 | 72 | 1006.3 |
| 20260506165018 | 18 | 207 | 8.0 | 11.3 | 0.05 | 1.57 | 1.35 | 70 | 1006.2 |
| 20260506164039 | 18 | 227 | 6.4 | 11.3 | 0.05 | 1.57 | 1.35 | 69 | 1006.3 |
| 20260506163106 | 18 | 204 | 6.4 | 16.1 | 0.05 | 1.57 | 1.32 | 70 | 1006.3 |
| 20260506162035 | 19 | 233 | 6.4 | 16.1 | 0.05 | 1.57 | 1.32 | 68 | 1006.3 |
| 20260506161106 | 19 | 195 | 6.4 | 11.3 | 0.05 | 1.57 | 1.32 | 66 | 1006.2 |
| 20260506160035 | 19 | 238 | 6.4 | 12.9 | 0.05 | 1.55 | 1.30 | 65 | 1006.1 |
| 20260506155105 | 19 | 211 | 9.7 | 16.1 | 0.05 | 1.57 | 1.30 | 64 | 1006.2 |
| 20260506154037 | 19 | 196 | 6.4 | 16.1 | 0.08 | 1.57 | 1.30 | 66 | 1006.0 |
| 20260506153018 | 19 | 223 | 9.7 | 16.1 | 0.05 | 1.55 | 1.27 | 69 | 1006.0 |
| 20260506152045 | 19 | 268 | 6.4 | 14.5 | 0.08 | 1.57 | 1.27 | 73 | 1006.0 |
| 20260506151106 | 19 | 232 | 8.0 | 12.9 | 0.08 | 1.57 | 1.27 | 74 | 1006.1 |
| 20260506150026 | 20 | 231 | 8.0 | 17.7 | 0.08 | 1.57 | 1.24 | 77 | 1006.0 |
| 20260506145036 | 20 | 211 | 8.0 | 16.1 | 0.08 | 1.57 | 1.24 | 78 | 1006.0 |
| 20260506144114 | 20 | 188 | 4.8 | 11.3 | 0.08 | 1.57 | 1.22 | 80 | 1005.9 |
| 20260506143041 | 18 | 219 | 8.0 | 16.1 | 0.08 | 1.57 | 1.22 | 82 | 1005.8 |
| 20260506142023 | 18 | 227 | 8.0 | 16.1 | 0.08 | 1.57 | 1.19 | 84 | 1005.8 |
| 20260506141107 | 18 | 229 | 11.3 | 20.9 | 0.08 | 1.57 | 1.19 | 83 | 1005.7 |
| 20260506140113 | 18 | 241 | 8.0 | 12.9 | 0.08 | 1.57 | 1.17 | 86 | 1005.9 |
| 20260506135035 | 18 | 144 | 6.4 | 11.3 | 0.08 | 1.60 | 1.17 | 88 | 1005.8 |
| 20260506134114 | 17 | 225 | 4.8 | 11.3 | 0.05 | 1.60 | 1.14 | 89 | 1006.0 |
| 20260506133033 | 16 | 303 | 1.6 | 4.8 | 0.08 | 1.63 | 1.14 | 89 | 1006.0 |
| 20260506132058 | 15 | 187 | 1.6 | 3.2 | 0.05 | 1.63 | 1.12 | 88 | 1006.3 |
| 20260506131052 | 15 | 238 | 3.2 | 4.8 | 0.08 | 1.65 | 1.12 | 88 | 1006.4 |
| 20260506130058 | 15 | 234 | 6.4 | 17.7 | 0.05 | 1.65 | 1.09 | 86 | 1006.5 |
| 20260506125039 | 13 | 206 | 1.6 | 4.8 | 0.08 | 1.68 | 1.09 | 86 | 1006.7 |
| 20260506124114 | 15 | 241 | 6.4 | 12.9 | 0.08 | 1.73 | 1.09 | 81 | 1006.5 |
| 20260506123031 | 16 | 185 | 11.3 | 24.1 | 0.08 | 1.73 | 1.07 | 80 | 1006.4 |
| 20260506122118 | 17 | 253 | 6.4 | 11.3 | 0.08 | 1.75 | 1.07 | 84 | 1006.2 |
| 20260506121019 | 17 | 155 | 3.2 | 6.4 | 0.08 | 1.78 | 1.04 | 84 | 1006.2 |
| 20260506120043 | 18 | 136 | 11.3 | 22.5 | 0.08 | 1.80 | 1.04 | 80 | 1006.0 |
| 20260506115019 | 20 | 158 | 9.7 | 17.7 | 0.08 | 1.83 | 1.02 | 77 | 1005.8 |
| 20260506114038 | 21 | 164 | 12.9 | 20.9 | 0.10 | 1.88 | 1.02 | 74 | 1005.8 |
| 20260506113018 | 21 | 131 | 11.3 | 22.5 | 0.08 | 1.91 | 0.99 | 75 | 1005.7 |
| 20260506112047 | 21 | 201 | 9.7 | 20.9 | 0.10 | 1.93 | 0.99 | 74 | 1005.8 |
| 20260506111106 | 20 | 132 | 11.3 | 24.1 | 0.08 | 1.96 | 0.97 | 75 | 1005.8 |
| 20260506110043 | 20 | 150 | 14.5 | 33.8 | 0.10 | 2.01 | 0.97 | 76 | 1005.9 |
| 20260506105050 | 20 | 146 | 14.5 | 29.0 | 0.08 | 2.01 | 0.94 | 76 | 1006.0 |
| 20260506104114 | 20 | 171 | 6.4 | 20.9 | 0.08 | 2.03 | 0.91 | 78 | 1006.3 |
| 20260506103033 | 20 | 169 | 11.3 | 25.7 | 0.08 | 2.06 | 0.91 | 75 | 1006.1 |
| 20260506102042 | 20 | 144 | 8.0 | 16.1 | 0.08 | 2.06 | 0.89 | 77 | 1006.1 |
| 20260506101106 | 20 | 132 | 12.9 | 27.4 | 0.08 | 2.08 | 0.89 | 76 | 1006.1 |
| 20260506100035 | 19 | 142 | 17.7 | 27.4 | 0.08 | 2.08 | 0.86 | 76 | 1006.0 |
| 20260506095106 | 19 | 149 | 14.5 | 24.1 | 0.08 | 2.13 | 0.86 | 78 | 1006.0 |
| 20260506094024 | 18 | 141 | 14.5 | 22.5 | 0.08 | 2.13 | 0.84 | 78 | 1006.0 |
| 20260506093111 | 18 | 143 | 17.7 | 25.7 | 0.08 | 2.16 | 0.84 | 79 | 1006.0 |
| 20260506092104 | 18 | 144 | 12.9 | 24.1 | 0.05 | 2.16 | 0.81 | 81 | 1005.9 |
| 20260506091051 | 17 | 129 | 11.3 | 17.7 | 0.08 | 2.18 | 0.81 | 83 | 1006.0 |
| 20260506090114 | 17 | 143 | 11.3 | 16.1 | 0.05 | 2.21 | 0.79 | 83 | 1006.0 |
| 20260506085036 | 17 | 137 | 12.9 | 22.5 | 0.08 | 2.24 | 0.79 | 83 | 1005.9 |
| 20260506084114 | 17 | 146 | 11.3 | 20.9 | 0.05 | 2.24 | 0.76 | 84 | 1005.9 |
| 20260506083035 | 16 | 148 | 8.0 | 11.3 | 0.08 | 2.26 | 0.76 | 87 | 1006.0 |
| 20260506082115 | 16 | 175 | 1.6 | 3.2 | 0.08 | 2.29 | 0.76 | 88 | 1006.1 |
| 20260506081034 | 16 | 144 | 3.2 | 9.7 | 0.08 | 2.31 | 0.74 | 89 | 1006.1 |
| 20260506073019 | 16 | 120 | 1.6 | 4.8 | 0.05 | 2.49 | 0.69 | 93 | 1006.0 |
| 20260506072106 | 15 | 119 | 0.0 | 1.6 | 0.08 | 2.51 | 0.69 | 93 | 1006.0 |
| 20260506071018 | 15 | 0.0 | 0.0 | 0.05 | 2.49 | 0.66 | 93 | 1005.9 | |
| 20260506062115 | 15 | 0.0 | 0.0 | 0.08 | 2.57 | 0.61 | 93 | 1005.8 | |
| 20260506061035 | 14 | 128 | 0.0 | 1.6 | 0.08 | 2.62 | 0.61 | 93 | 1005.9 |
| 20260506051050 | 14 | 0.0 | 0.0 | 0.08 | 3.07 | 0.53 | 93 | 1005.8 | |
| 20260506050114 | 14 | 224 | 0.0 | 1.6 | 0.05 | 3.17 | 0.51 | 93 | 1005.8 |
| 20260506045053 | 14 | 282 | 1.6 | 3.2 | 0.08 | 3.30 | 0.51 | 93 | 1005.7 |
| 20260506044118 | 14 | 111 | 1.6 | 3.2 | 0.08 | 3.43 | 0.51 | 93 | 1005.8 |
| 20260506043019 | 13 | 236 | 3.2 | 4.8 | 0.08 | 3.53 | 0.48 | 93 | 1005.7 |
| 20260506042042 | 13 | 234 | 1.6 | 4.8 | 0.08 | 3.66 | 0.48 | 93 | 1005.5 |
| 20260506041106 | 13 | 172 | 1.6 | 3.2 | 0.08 | 3.78 | 0.46 | 93 | 1005.6 |
| 20260506040025 | 13 | 47 | 3.2 | 4.8 | 0.08 | 3.94 | 0.46 | 93 | 1005.6 |
| 20260506035110 | 13 | 75 | 1.6 | 4.8 | 0.08 | 4.06 | 0.43 | 93 | 1005.8 |
| 20260506034116 | 13 | 41 | 1.6 | 3.2 | 0.08 | 4.14 | 0.43 | 93 | 1006.1 |
| 20260506033033 | 13 | 15 | 1.6 | 3.2 | 0.08 | 4.14 | 0.41 | 93 | 1006.0 |
| 20260506032100 | 13 | 255 | 0.0 | 3.2 | 0.08 | 4.17 | 0.41 | 93 | 1006.3 |
| 20260506031039 | 13 | 353 | 6.4 | 11.3 | 0.08 | 4.17 | 0.38 | 93 | 1006.5 |
| 20260506030103 | 13 | 244 | 4.8 | 9.7 | 0.10 | 4.17 | 0.38 | 93 | 1006.7 |
| 20260506025040 | 13 | 77 | 1.6 | 3.2 | 0.08 | 4.14 | 0.36 | 93 | 1006.2 |
| 20260506024058 | 13 | 61 | 0.0 | 1.6 | 0.08 | 4.17 | 0.36 | 93 | 1006.5 |
| 20260506023033 | 13 | 97 | 0.0 | 1.6 | 0.08 | 4.17 | 0.33 | 93 | 1006.6 |
| 20260506022058 | 13 | 89 | 3.2 | 6.4 | 0.10 | 4.17 | 0.33 | 92 | 1006.8 |
| 20260506021018 | 13 | 110 | 1.6 | 4.8 | 0.08 | 4.17 | 0.30 | 92 | 1006.3 |
| 20260506015107 | 13 | 103 | 1.6 | 3.2 | 0.08 | 4.17 | 0.28 | 92 | 1006.5 |
| 20260506014029 | 13 | 23 | 1.6 | 3.2 | 0.10 | 4.22 | 0.28 | 92 | 1006.4 |
| 20260506013055 | 13 | 313 | 1.6 | 3.2 | 0.10 | 4.27 | 0.25 | 92 | 1006.8 |
| 20260506012114 | 13 | 258 | 3.2 | 3.2 | 0.08 | 4.32 | 0.23 | 92 | 1007.2 |
| 20260506010531 | 13 | 301 | 3.2 | 6.4 | 0.10 | 4.37 | 0.23 | 92 | 1007.0 |
| 20260506005555 | 13 | 39 | 0.0 | 1.6 | 0.10 | 4.42 | 0.20 | 92 | 1006.9 |
| 20260506004534 | 13 | 6 | 0.0 | 1.6 | 0.08 | 4.47 | 0.18 | 92 | 1007.1 |
| 20260506003555 | 13 | 97 | 1.6 | 4.8 | 0.10 | 4.55 | 0.18 | 92 | 1007.1 |
| 20260506002619 | 13 | 328 | 3.2 | 3.2 | 0.08 | 4.57 | 0.15 | 92 | 1007.4 |
| 20260506001540 | 13 | 24 | 3.2 | 6.4 | 0.08 | 4.60 | 0.13 | 92 | 1007.4 |
| 20260506000619 | 13 | 210 | 3.2 | 6.4 | 0.08 | 4.65 | 0.13 | 92 | 1007.4 |
| 20260505235537 | 13 | 60 | 1.6 | 3.2 | 0.08 | 4.72 | 0.10 | 92 | 1007.5 |